GW6385 Weather Reports


time (UTC)temp
C
wind
direction
speed
KPH
gust
KPH
rain 1hr
cm
rain 24hr
cm
rain mn
cm
humidity
%
barometer
mb
20260502152322 12 351 11.3 19.3 0.00 0.00 0.00 52 1032.6
20260502151821 12 358 9.7 19.3 0.00 0.00 0.00 55 986.5
20260502151320 12 342 8.0 19.3 0.00 0.00 0.00 57 1048.5
20260502150819 12 323 6.4 19.3 0.00 0.00 0.00 57 1043.4
20260502150319 12 327 9.7 19.3 0.00 0.00 0.00 55 998.1
20260502130206 7 354 8.0 19.3 0.00 0.00 0.00 64 939.1
20260502123634 6 341 4.8 19.3 0.00 0.00 0.00 69 1093.7
20260502123133 6 1 3.2 19.3 0.00 0.00 0.00 69 1027.2
20260502122632 6 338 3.2 19.3 0.00 0.00 0.00 69 1185.3
20260502122131 6 335 3.2 19.3 0.00 0.00 0.00 69 1176.6
20260502121631 6 339 3.2 19.3 0.00 0.00 0.00 69 1181.0
20260502121130 6 338 1.6 19.3 0.00 0.00 0.00 69 1182.2
20260502120629 6 320 3.2 19.3 0.00 0.00 0.00 69 1183.5
20260502120128 6 355 1.6 19.3 0.00 0.00 0.00 69 1230.0
20260502115628 6 357 1.6 19.3 0.00 0.00 0.00 69 1231.7
20260502115128 6 359 1.6 19.3 0.00 0.00 0.00 69 1231.7
20260502114628 6 359 1.6 19.3 0.00 0.00 0.00 68 1226.5
20260502114128 6 0 3.2 19.3 0.00 0.00 0.00 69 1216.5
20260502113628 6 358 3.2 19.3 0.00 0.00 0.00 69 1199.3
20260502113127 6 0 3.2 19.3 0.00 0.00 0.00 68 1170.4
20260502112110 6 358 6.4 19.3 0.00 0.00 0.00 68 1016.3
20260502111055 6 0 4.8 19.3 0.00 0.00 0.00 67 689.0
20260502110554 6 359 6.4 19.3 0.00 0.00 0.00 67 784.5
20260502105537 6 0 6.4 19.3 0.00 0.00 0.00 66 694.2
20260502105036 6 0 8.0 19.3 0.00 0.00 0.00 65 582.8
20260502104021 6 2 9.7 19.3 0.00 0.00 0.00 65 358.3
20260502103520 7 4 9.7 19.3 0.00 0.00 0.00 65 311.0
20260502103019 7 4 9.7 19.3 0.00 0.00 0.00 65 332.9
20260502102518 6 7 8.0 19.3 0.00 0.00 0.00 66 314.9
20260502102017 6 6 9.7 19.3 0.00 0.00 0.00 66 308.9
20260502101517 7 5 9.7 19.3 0.00 0.00 0.00 66 349.1
20260502101016 7 5 8.0 19.3 0.00 0.00 0.00 65 391.9
20260502100516 7 1 6.4 19.3 0.00 0.00 0.00 64 410.5
20260502091410 7 0 8.0 19.3 0.00 0.00 0.00 63 489.5
20260502090909 7 3 8.0 19.3 0.00 0.00 0.00 63 370.9
20260502090408 7 2 8.0 19.3 0.00 0.00 0.00 62 407.5
20260502071242 9 3 8.0 19.3 0.00 0.00 0.00 60 466.7
20260502070741 9 3 9.7 19.3 0.00 0.00 0.00 60 470.3
20260502065725 9 0 8.0 19.3 0.00 0.00 0.00 61 316.2
20260502065224 9 2 6.4 19.3 0.00 0.00 0.00 62 264.7
20260502064724 9 2 6.4 19.3 0.00 0.00 0.00 62 250.7
20260502064224 9 6 6.4 19.3 0.00 0.00 0.00 62 261.3
20260502063723 9 6 8.0 19.3 0.00 0.00 0.00 61 262.4
20260502063222 10 5 8.0 19.3 0.00 0.00 0.00 61 238.2
20260502062722 10 6 8.0 19.3 0.00 0.00 0.00 62 232.5
20260502062222 10 7 8.0 19.3 0.00 0.00 0.00 62 239.7
20260502061221 10 4 8.0 19.3 0.00 0.00 0.00 62 303.3
20260502060721 10 4 8.0 19.3 0.00 0.00 0.00 62 366.7
20260502060221 10 2 8.0 19.3 0.00 0.00 0.00 62 402.9
20260502055205 10 3 9.7 19.3 0.00 0.00 0.00 62 523.4
20260502054150 11 1 8.0 19.3 0.00 0.00 0.00 63 601.1
20260502053650 11 1 9.7 19.3 0.00 0.00 0.00 63 557.1
20260502053149 11 1 6.4 19.3 0.00 0.00 0.00 64 509.9
20260502051616 11 1 8.0 19.3 0.00 0.00 0.00 64 692.9
20260502051115 11 1 8.0 19.3 0.00 0.00 0.00 64 568.4
20260502050614 11 2 8.0 19.3 0.00 0.00 0.00 63 522.9
20260502050113 11 0 8.0 19.3 0.00 0.00 0.00 63 578.9
20260502045612 12 1 8.0 19.3 0.00 0.00 0.00 62 458.5
20260502045111 11 0 8.0 19.3 0.00 0.00 0.00 63 322.0
20260502044610 11 8 6.4 19.3 0.00 0.00 0.00 65 201.3
20260502044109 11 3 6.4 19.3 0.00 0.00 0.00 65 207.0
20260502043608 11 7 6.4 19.3 0.00 0.00 0.00 66 197.9
20260502043107 11 7 6.4 19.3 0.00 0.00 0.00 68 210.7
20260502040503 12 32 3.2 19.3 0.00 0.00 0.00 68 500.5
20260502040002 12 1 4.8 19.3 0.00 0.00 0.00 67 736.4
20260502035502 12 0 4.8 19.3 0.00 0.00 0.00 68 1089.7
20260502035001 12 352 3.2 19.3 0.00 0.00 0.00 67 1145.3
20260502034501 12 328 3.2 19.3 0.00 0.00 0.00 67 1104.3
20260502034001 12 323 1.6 19.3 0.00 0.00 0.00 66 1070.4
20260502033500 12 305 1.6 19.3 0.00 0.00 0.00 66 1030.5
20260502032445 12 284 1.6 19.3 0.00 0.00 0.00 64 1005.6
20260502031945 12 284 1.6 19.3 0.00 0.00 0.00 63 999.8
20260502031444 12 280 1.6 19.3 0.00 0.00 0.00 62 992.9
20260502030944 13 279 1.6 19.3 0.00 0.00 0.00 62 987.7
20260502025929 13 276 1.6 19.3 0.00 0.00 0.00 62 985.7
20260502025427 13 276 0.0 19.3 0.00 0.00 0.00 61 985.8
20260502024927 13 276 1.6 19.3 0.00 0.00 0.00 61 986.6
20260502024426 13 276 0.0 19.3 0.00 0.00 0.00 61 986.7
20260502023925 13 276 1.6 19.3 0.00 0.00 0.00 61 986.3
20260502023425 13 276 1.6 19.3 0.00 0.00 0.00 60 986.8
20260502022924 13 276 0.0 19.3 0.00 0.00 0.00 59 986.9
20260502022423 13 276 0.0 19.3 0.00 0.00 0.00 59 986.7
20260502021407 13 276 0.0 19.3 0.00 0.00 0.00 59 986.9
20260502020906 13 276 1.6 19.3 0.00 0.00 0.00 59 986.7
20260502020405 13 276 0.0 19.3 0.00 0.00 0.00 58 986.2
20260502015905 13 276 1.6 19.3 0.00 0.00 0.00 58 985.0
20260502014848 14 274 1.6 19.3 0.00 0.00 0.00 56 980.5
20260502014348 14 274 1.6 19.3 0.00 0.00 0.00 55 980.2
20260502013847 14 274 0.0 19.3 0.00 0.00 0.00 54 979.5
20260502013346 15 274 1.6 19.3 0.00 0.00 0.00 53 978.0
20260502012846 15 274 1.6 19.3 0.00 0.00 0.00 53 975.5
20260502011829 15 275 1.6 19.3 0.00 0.00 0.00 53 958.4
20260502011328 15 264 3.2 19.3 0.00 0.00 0.00 52 949.4
20260502010828 15 271 3.2 19.3 0.00 0.00 0.00 52 946.9
20260502010327 15 256 8.0 19.3 0.00 0.00 0.00 52 931.0
20260502005827 16 256 8.0 19.3 0.00 0.00 0.00 50 934.6
20260502005326 16 256 9.7 19.3 0.00 0.00 0.00 49 944.4
20260502004825 16 261 11.3 19.3 0.00 0.00 0.00 48 957.5
20260502004324 16 254 9.7 19.3 0.00 0.00 0.00 48 978.4
20260502003823 17 285 6.4 19.3 0.00 0.00 0.00 45 1023.2
20260502003322 16 284 8.0 19.3 0.00 0.00 0.00 44 1024.9
20260502002821 16 284 4.8 19.3 0.00 0.00 0.00 45 1031.6
20260502002320 16 293 4.8 19.3 0.00 0.00 0.00 45 1050.2
20260502001821 16 281 4.8 19.3 0.00 0.00 0.00 45 1070.2
20260502000805 17 319 6.4 19.3 0.00 0.00 0.00 41 1093.1
20260502000304 17 327 6.4 19.3 0.00 0.00 0.00 42 1076.0
20260501235803 17 351 3.2 19.3 0.00 0.00 0.00 44 1112.2
20260501235305 17 335 4.8 19.3 0.00 0.00 0.00 44 1053.5
20260501234802 16 328 3.2 19.3 0.00 0.00 0.00 44 1102.5
20260501234301 17 336 4.8 19.3 0.00 0.00 0.00 43 1101.1
20260501233801 17 340 4.8 19.3 0.00 0.00 0.00 43 1118.5
20260501233300 17 331 3.2 19.3 0.00 0.00 0.00 43 1123.6
20260501232759 17 326 6.4 19.3 0.00 0.00 0.00 41 1098.7
20260501232258 17 326 4.8 19.3 0.00 0.00 0.00 41 1087.0
20260501231243 17 337 8.0 19.3 0.00 0.00 0.00 40 1042.5
20260501230742 17 358 6.4 19.3 0.00 0.00 0.00 42 1059.7
20260501230240 17 340 4.8 19.3 0.00 0.00 0.00 40 1044.6
20260501225740 17 328 3.2 19.3 0.00 0.00 0.00 41 947.2
20260501225239 17 4 8.0 19.3 0.00 0.00 0.00 39 736.5
20260501224737 17 317 4.8 19.3 0.00 0.00 0.00 40 1071.1
20260501223722 17 280 4.8 19.3 0.00 0.00 0.00 40 1034.4
20260501223222 17 286 4.8 19.3 0.00 0.00 0.00 39 1048.8
20260501222720 17 296 4.8 19.3 0.00 0.00 0.00 41 1068.7
20260501222221 17 323 6.4 19.3 0.00 0.00 0.00 40 1057.5
20260501221719 17 332 4.8 19.3 0.00 0.00 0.00 43 991.1
20260501221220 17 330 6.4 19.3 0.00 0.00 0.00 40 995.6
20260501220202 17 355 6.4 19.3 0.00 0.00 0.00 37 968.3
20260501215702 17 355 12.9 19.3 0.00 0.00 0.00 39 990.4
20260501215201 17 323 6.4 19.3 0.00 0.00 0.00 38 943.9
20260501214700 17 352 6.4 19.3 0.00 0.00 0.00 39 874.2
20260501214159 17 1 11.3 19.3 0.00 0.00 0.00 38 882.6
20260501213657 17 346 9.7 19.3 0.00 0.00 0.00 38 929.6
20260501213157 17 330 6.4 19.3 0.00 0.00 0.00 38 1040.8
20260501212656 17 338 8.0 19.3 0.00 0.00 0.00 40 1078.0
20260501212155 17 318 4.8 19.3 0.00 0.00 0.00 41 1074.3
20260501211654 17 350 9.7 20.9 0.00 0.00 0.00 40 1044.1
20260501211153 17 333 6.4 20.9 0.00 0.00 0.00 40 1086.2
20260501210652 17 310 4.8 20.9 0.00 0.00 0.00 40 1080.3
20260501210151 17 330 8.0 20.9 0.00 0.00 0.00 38 1057.6
20260501205651 17 349 8.0 20.9 0.00 0.00 0.00 39 1023.2
20260501204634 17 269 8.0 20.9 0.00 0.00 0.00 40 965.9
20260501204133 17 251 11.3 20.9 0.00 0.00 0.00 39 950.4
20260501203632 17 254 8.0 20.9 0.00 0.00 0.00 37 941.5
20260501203131 17 246 9.7 20.9 0.00 0.00 0.00 40 975.9
20260501202114 17 310 3.2 20.9 0.00 0.00 0.00 38 989.0
20260501201057 17 248 8.0 20.9 0.00 0.00 0.00 36 934.6
20260501200557 17 253 9.7 20.9 0.00 0.00 0.00 37 969.4
20260501200056 17 289 11.3 20.9 0.00 0.00 0.00 37 1024.1
20260501195040 17 292 6.4 19.3 0.00 0.00 0.00 38 1044.8
20260501194540 17 311 8.0 19.3 0.00 0.00 0.00 39 1038.9
20260501194039 17 300 3.2 19.3 0.00 0.00 0.00 38 1013.4
20260501192508 17 312 6.4 22.5 0.00 0.00 0.00 39 988.9
20260501192007 17 250 14.5 22.5 0.00 0.00 0.00 39 909.1
20260501191506 17 338 8.0 19.3 0.00 0.00 0.00 41 918.9
20260501191006 17 318 4.8 19.3 0.00 0.00 0.00 38 922.7
20260501190506 17 13 6.4 19.3 0.00 0.00 0.00 37 879.9
20260501190006 17 262 8.0 17.7 0.00 0.00 0.00 39 988.2
20260501185506 16 279 9.7 17.7 0.00 0.00 0.00 38 963.7
20260501185006 17 255 9.7 17.7 0.00 0.00 0.00 39 936.8
20260501184506 17 271 6.4 17.7 0.00 0.00 0.00 38 999.1
20260501184006 16 282 1.6 17.7 0.00 0.00 0.00 39 1003.7
20260501183505 16 298 8.0 22.5 0.00 0.00 0.00 36 996.8
20260501183005 16 323 11.3 22.5 0.00 0.00 0.00 35 965.2
20260501182505 16 359 9.7 22.5 0.00 0.00 0.00 35 900.0
20260501181450 16 309 4.8 22.5 0.00 0.00 0.00 37 935.9
20260501180433 16 244 9.7 22.5 0.00 0.00 0.00 35 986.6
20260501175932 16 305 8.0 22.5 0.00 0.00 0.00 36 1038.8
20260501174915 16 299 8.0 17.7 0.00 0.00 0.00 37 984.1
20260501174415 16 272 3.2 17.7 0.00 0.00 0.00 40 950.4
20260501173914 16 232 4.8 19.3 0.00 0.00 0.00 39 970.2
20260501173413 16 359 4.8 19.3 0.00 0.00 0.00 37 891.1
20260501172912 16 252 3.2 19.3 0.00 0.00 0.00 38 936.4
20260501172411 16 310 4.8 19.3 0.00 0.00 0.00 37 959.1
20260501171910 16 237 9.7 19.3 0.00 0.00 0.00 40 866.8
20260501171410 15 230 1.6 19.3 0.00 0.00 0.00 37 869.7
20260501170354 15 236 6.4 19.3 0.00 0.00 0.00 40 908.5
20260501165853 15 282 9.7 19.3 0.00 0.00 0.00 42 918.4
20260501165352 15 281 8.0 19.3 0.00 0.00 0.00 41 872.4
20260501164851 15 216 6.4 19.3 0.00 0.00 0.00 42 808.9
20260501164350 15 204 6.4 19.3 0.00 0.00 0.00 40 809.5
20260501163849 15 211 11.3 19.3 0.00 0.00 0.00 42 834.5
20260501163348 15 232 8.0 19.3 0.00 0.00 0.00 43 840.6
20260501162847 15 257 8.0 22.5 0.00 0.00 0.00 45 802.5
20260501162346 15 178 4.8 22.5 0.00 0.00 0.00 45 737.3
20260501161845 14 167 1.6 22.5 0.00 0.00 0.00 44 767.9
20260501161344 14 212 9.7 22.5 0.00 0.00 0.00 45 845.4
20260501160844 14 259 8.0 22.5 0.00 0.00 0.00 44 896.9
20260501160344 13 243 9.7 22.5 0.00 0.00 0.00 44 849.8
20260501155843 14 223 11.3 22.5 0.00 0.00 0.00 45 815.9
20260501155343 14 234 6.4 22.5 0.00 0.00 0.00 47 767.8
20260501154327 13 219 9.7 22.5 0.00 0.00 0.00 49 783.2